COSMOS 2528 DEB, 45038

Orbit data source: Space-Track

COSMOS 2528 DEB, 45038 is space debris in LEO originally from a launch on Thu, 25 Oct 2018 UTC launched from the Plesetsk Missile And Space Complex (PKMTR). Debris objects in space refer to the collection of defunct objects orbiting the Earth. Examples of debris include non-operational satellites, rocket bodies, and fragments generated from explosions, collisions, or faulty payload assembly.

Loading next visibility...
Identifier
45038, 2018-082D
Orbit
LEO
Country
Flag of CISCIS
Related business
Manufacturer
Arsenal
Mission
Spacecraft
Bus & Motor
Unknown
Mass
Unknown
Launch date (UTC)
2018-10-25 (8 years ago)
Launch vehicle
Unknown
Launch site
Plesetsk Missile And Space Complex (PKMTR)
Object type
Payload
Rocket body
Debris
Shape & HBR
Unknown shape, 1.1 m
Radar Cross Section
Large (>1 m²)

Expand to show TLE details & history
Last TLE update: 2 days ago

TLE from 2 days ago
0 COSMOS 2528 DEB
1 45038U 18082D   26171.41220464  .00000643  00000-0  48262-3 0  9997
2 45038  67.1682  70.6711 0022490 283.6281  76.2301 14.00504182327388
Epoch: 2026-06-20T09:53Z
TLE epoch observation values (Epoch: 2026-06-20T09:53:34.480Z)
Latitude
-0.00006°
Longitude
13.65021°
Altitude
890.306 km
Speed
7.409 km/s
True Right ascension
04h 42m 41s
True Declination
0° 00' 00"
Sunlit
Object was in daylight at epoch
Visualization orbit readout
Latitude
Unknown
Longitude
Unknown
Altitude
Unknown
Speed
Unknown
Apparent Right ascension
Unknown
Apparent Declination
Unknown
Sunlit
N/A
Visualization observer readout
Local Sidereal Time
21:31:19
Azimuth
Unknown
Elevation
Unknown
Doppler factor
Unknown
Orbital elements
Apogee altitude
906.741 km
Perigee altitude
874.047 km
Semi-major axis
7,268.531 km
Eccentricity
0.00225
Inclination
67.1682°
RAAN
70.6711°
Arg. of periapsis
283.6281°
True anomaly
76.48058°
Mean anomaly
76.2301°
Eccentric anomaly
76.35532°
Mean motion
3.50246 °/min
Orbital period
102.78 mins
BSTAR
0.00048262
Loading maneuver chart data...
Computing Atmospheric mass density...
Loading historical data...
Loading historical data...
Loading historical data...
Loading historical data...
Loading historical data...
Loading historical data...
Loading historical data...
Other satellites on launch #82 in the year 2018 (2018-10-25 UTC)

Documentation

Showing up to 5 results
|